Location: San Bernardino
(34.1083°N, 117.2898°W)
Time: 16:26:41
(UTC+00:00)

Cosmos 2278 Rocket - Pass Details

Date: 13 April 2024
Orbit: 839 x 846 km, 71.0° (Epoch: 19 May)

Event Time Altitude Azimuth Distance (km) Brightness Sun altitude
Rises 12:25:49 0° 323° (NW) 3,410 5.2 -11.6°
Reaches altitude 10° 12:28:43 10° 310° (NW) 2,470 4.3 -11.0°
Maximum altitude 12:33:05 23° 259° (W) 1,711 3.2 -10.2°
Drops below altitude 10° 12:37:26 10° 208° (SSW) 2,456 4.2 -9.3°
Sets 12:40:19 0° 194° (SSW) 3,386 5.0 -8.7°
